Date,TemperatureHighF,TemperatureAvgF,TemperatureLowF,DewpointHighF,DewpointAvgF,DewpointLowF,HumidityHigh,HumidityAvg,HumidityLow,PressureMaxIn,PressureMinIn,WindSpeedMaxMPH,WindSpeedAvgMPH,GustSpeedMaxMPH,PrecipitationSumIn
2013-2-1,45,37,27,28,6,-13,69,35,8,30.17,29.81,12,5,0,0.48
2013-2-2,43,32,19,35,20,3,98,68,19,30.19,29.88,9,3,0,0.91
2013-2-3,54,41,32,38,29,22,98,67,30,29.87,29.72,19,6,0,0.01
2013-2-4,48,38,28,30,25,21,86,63,36,29.96,29.84,5,2,0,0.00
2013-2-5,63,46,30,45,36,27,98,72,34,29.84,29.74,15,4,0,0.00
2013-2-6,68,51,36,46,29,12,98,56,12,30.00,29.83,8,2,0,0.44
2013-2-7,50,45,43,42,34,22,98,69,37,30.04,29.79,13,7,0,1.51
2013-2-8,61,47,37,49,39,25,98,75,39,29.95,29.74,10,4,0,0.00
2013-2-9,61,44,28,29,24,15,85,52,17,30.14,29.93,6,2,0,0.00
2013-2-10,57,46,36,46,33,22,98,62,34,30.24,29.99,9,3,0,1.07
2013-2-11,55,50,46,55,49,46,98,98,93,29.99,29.85,6,2,0,0.35
2013-2-14,52,42,32,34,33,29,89,72,47,29.88,29.80,6,2,0,0.00
2013-2-15,63,46,28,38,32,28,98,66,31,29.92,29.76,14,3,0,0.00
2013-2-16,45,37,28,35,26,12,89,67,37,29.88,29.67,13,4,0,0.41
2013-2-17,46,34,27,18,7,-3,67,35,13,30.09,29.88,14,5,0,0.00
2013-2-18,55,40,23,26,20,14,86,49,25,30.19,30.03,11,2,0,0.00
2013-2-19,54,42,36,45,31,14,98,70,35,30.03,29.73,13,3,0,0.76
2013-2-20,57,42,27,20,13,0,64,33,12,29.96,29.86,7,2,0,0.00
2013-2-21,59,44,28,39,18,7,85,42,14,30.04,29.89,9,3,0,0.26
2013-2-22,43,39,37,40,37,-55,98,96,82,30.07,29.92,11,5,0,0.76
2013-2-23,46,41,37,44,41,37,98,97,92,29.93,29.67,6,2,0,0.76
2013-2-24,68,51,39,46,38,28,98,67,26,29.83,29.69,9,3,0,0.01
2013-2-25,48,43,36,34,27,24,90,56,45,29.96,29.81,12,6,0,0.04
2013-2-26,45,38,34,44,37,32,98,97,88,29.82,29.42,15,6,0,1.15
2013-2-27,57,47,37,38,35,32,88,65,47,29.65,29.51,13,6,0,0.00
2013-2-28,52,41,30,35,26,23,78,55,40,29.74,29.58,14,5,0,0.00